[[{"header":{"parameterUnit":"m.s-1","parameterCategory":1,"la1":30.2991,"la2":30.254,"lo1":-89.0895,"lo2":-89.0444,"dy":0.0017,"dx":0.0017,"nx":28,"ny":28,"refTime":"2024-04-25T09:00:00:Z","depth":0,"parameterNumber":2,"parameterNumberName":"U-component_of_WINDS"},"data":[0,0,0,0,0,0,0,0,0,0,0,0,0,0,0,0,0,0,0,0,0,0,0,0,0,0,0,0,0,0,0,0,0,0,0,0,0,0,0,0,0,0,0,0,0,0,0,0,0,0,0,0,0,0,0,0,0,0,0.8108,0.8109,0,0.8181,0.8182,0.8183,0.8205,0.8205,0.8204,0.8204,0.8278,0.828,0.8282,0,0,0,0,0,0,0,0,0,0,0,0,0,0.7986,0.7988,0.8108,0.8109,0.811,0.8181,0.8182,0.8183,0.8205,0.8205,0.8204,0.8204,0.8277,0.828,0.8283,0,0,0,0,0,0,0,0,0,0,0,0,0,0.8047,0.7989,0.8108,0.8129,0.8132,0.8181,0.8182,0.8183,0.8205,0.8205,0.8204,0.8204,0.8276,0.828,0.8283,0.8315,0,0,0.8294,0.8295,0,0,0,0,0,0,0,0,0.8043,0.8051,0.8125,0.8128,0.8131,0.8183,0.8166,0.8227,0.8205,0.8177,0.8204,0.8203,0.8247,0.8253,0.8268,0.8318,0.8322,0.8294,0.8296,0.8297,0.8298,0,0,0,0,0,0,0,0.8039,0.8048,0.8137,0.8126,0.813,0.8135,0.8143,0.8178,0.8214,0.818,0.8182,0.819,0.8248,0.8264,0.8269,0.8323,0.8294,0.8297,0.8299,0.83,0.8402,0.8403,0,0,0,0,0,0,0.8031,0.8045,0.8135,0.8139,0.8085,0.8138,0.8147,0.8167,0.8214,0.8221,0.819,0.8191,0.8259,0.8265,0.8272,0.8312,0.8297,0.8301,0.8303,0.8402,0.8403,0.8403,0,0,0,0,0,0,0.8029,0.8039,0.8132,0.8092,0.8104,0.814,0.8163,0.8169,0.8185,0.8222,0.8228,0.82,0.8258,0.8267,0.8304,0.8315,0.8302,0.8305,0.8401,0.8402,0.8403,0.8392,0,0,0,0,0,0,0.8025,0.8038,0.8051,0.8092,0.8106,0.8163,0.8164,0.8171,0.8191,0.8192,0.8233,0.8239,0.8259,0.8299,0.8307,0.8319,0.8308,0.84,0.8401,0.8403,0.8392,0.8393,0.8394,0,0,0,0,0,0.8021,0.8045,0.8052,0.8062,0.8124,0.8163,0.8171,0.8194,0.8192,0.8205,0.8228,0.8238,0.8312,0.8302,0.8312,0.8325,0.84,0.8401,0.8402,0.8391,0.8393,0.8394,0,0,0,0,0,0,0.8004,0.8051,0.8059,0.8098,0.8126,0.8167,0.8184,0.8195,0.8224,0.8224,0.825,0.8259,0.8294,0.8314,0.8302,0.8358,0.8356,0.836,0.8344,0.8346,0.8347,0.8341,0.8311,0,0,0,0,0,0.8005,0.8034,0.8073,0.8104,0.8118,0.8148,0.8167,0.8181,0.8212,0.8224,0.8251,0.828,0.831,0.8329,0.8359,0.8395,0.8403,0.8409,0.8409,0.841,0.8413,0.8432,0.8435,0.8408,0.8408,0.8408,0,0,0.8007,0.8036,0.8053,0.8101,0.8125,0.8153,0.8158,0.8189,0.821,0.8229,0.8265,0.8285,0.8319,0.8356,0.8373,0.8373,0.8422,0.8412,0.8412,0.8414,0.8434,0.8437,0.8439,0.8409,0.8409,0.8409,0,0,0.8025,0.8051,0.8079,0.8102,0.8139,0.8159,0.8165,0.8204,0.8219,0.8255,0.827,0.8295,0.8346,0.837,0.8388,0.8414,0.8424,0.8423,0.8428,0.8447,0.8449,0.8451,0.846,0.8462,0.8426,0.8426,0.8426,0,0.8023,0.8068,0.8091,0.8121,0.8141,0.8159,0.8187,0.8209,0.8253,0.8266,0.8265,0.8329,0.8354,0.8395,0.8402,0.8416,0.8424,0.8419,0.8447,0.8449,0.8451,0.846,0.8463,0.8426,0.8426,0.8426,0.8426,0,0.8063,0.8093,0.8111,0.8153,0.8175,0.8204,0.8231,0.8251,0.8263,0.8283,0.832,0.8349,0.8385,0.8396,0.8409,0.8439,0.8438,0.8442,0.844,0.8453,0.8461,0.8465,0.8425,0.8425,0.8425,0.8425,0,0,0.8073,0.8128,0.8134,0.8152,0.8193,0.8217,0.8246,0.8281,0.8296,0.8326,0.835,0.8393,0.8396,0.8417,0.8432,0.8449,0.8467,0.8451,0.8452,0.8452,0.8501,0.8498,0.8501,0.8473,0.8474,0.8475,0.8498,0,0.8097,0.8149,0.8171,0.8213,0.8241,0.8258,0.8283,0.831,0.8329,0.8355,0.8376,0.8405,0.8408,0.8421,0.8438,0.8461,0.8477,0.846,0.8496,0.8497,0.8486,0.8506,0.8503,0.8524,0.8502,0.8502,0.8503,0,0.8131,0.816,0.8205,0.8242,0.8254,0.8276,0.8309,0.8334,0.8365,0.8378,0.8401,0.8415,0.8445,0.8441,0.8483,0.847,0.8486,0.85,0.8501,0.8505,0.85,0.851,0.8531,0.8534,0.8508,0.8508,0.8508,0,0.8133,0.8184,0.8217,0.8233,0.8277,0.8291,0.831,0.8341,0.836,0.8389,0.8402,0.8433,0.8451,0.8475,0.8497,0.8493,0.8536,0.8534,0.8547,0.8546,0.8555,0.8554,0.8578,0.8566,0.8566,0.8566,0.8566,0,0.8157,0.8183,0.8219,0.8239,0.8269,0.8293,0.8322,0.8342,0.8369,0.8393,0.841,0.8432,0.846,0.8485,0.8503,0.8534,0.8542,0.8553,0.8557,0.8551,0.8549,0.8562,0.856,0.8567,0.8566,0.8566,0.8566,0,0.8164,0.8189,0.8226,0.8265,0.8275,0.8295,0.8327,0.8347,0.8367,0.8397,0.8405,0.8436,0.8467,0.8492,0.8532,0.8544,0.8576,0.8581,0.8566,0.8568,0.8579,0.8577,0.8611,0.8617,0.8601,0.8601,0.8601,0,0.8177,0.8198,0.8238,0.8256,0.8274,0.8302,0.8322,0.8346,0.8366,0.8402,0.8417,0.8449,0.8476,0.8524,0.855,0.8581,0.8586,0.8596,0.8591,0.8584,0.8586,0.8584,0.8586,0.8597,0.8597,0.8597,0.8597,0,0.8198,0.8209,0.8237,0.8268,0.8291,0.8318,0.8344,0.8357,0.8386,0.8407,0.8439,0.846,0.8501,0.8532,0.8565,0.8584,0.8595,0.8598,0.8603,0.8597,0.8587,0.8592,0.8567,0.8597,0.8597,0.8597,0.8597,0.8597,0.8208,0.8227,0.8258,0.8288,0.8311,0.8335,0.8355,0.8377,0.8404,0.8439,0.8452,0.8484,0.8514,0.856,0.8579,0.8604,0.8605,0.8611,0.8613,0.8614,0.8613,0.8583,0.861,0.861,0.861,0.861,0.861,0,0.8229,0.8249,0.8277,0.8313,0.8337,0.8345,0.8375,0.8394,0.8422,0.8449,0.8475,0.8511,0.8541,0.8569,0.86,0.8615,0.8621,0.8622,0.8621,0.8625,0.8611,0.8604,0.8617,0.8617,0.8617,0.8617,0.8617,0.8617,0.8242,0.8274,0.8289,0.8332,0.8353,0.8384,0.84,0.8423,0.8444,0.8483,0.8509,0.8526,0.8553,0.8587,0.8615,0.8622,0.8633,0.8633,0.8641,0.8627,0.8626,0.8625,0.8619,0.8635,0.8635,0.8654,0.8654,0.8654]},{"header":{"parameterUnit":"m.s-1","parameterCategory":1,"la1":30.2991,"la2":30.254,"lo1":-89.0895,"lo2":-89.0444,"dy":0.0017,"dx":0.0017,"nx":28,"ny":28,"refTime":"2024-04-25T09:00:00:Z","depth":0,"parameterNumber":3,"parameterNumberName":"V-component_of_WINDS"},"data":[0,0,0,0,0,0,0,0,0,0,0,0,0,0,0,0,0,0,0,0,0,0,0,0,0,0,0,0,0,0,0,0,0,0,0,0,0,0,0,0,0,0,0,0,0,0,0,0,0,0,0,0,0,0,0,0,0,0,0.3885,0.3885,0,0.3912,0.3912,0.3912,0.3925,0.3925,0.3925,0.3925,0.3949,0.395,0.3951,0,0,0,0,0,0,0,0,0,0,0,0,0,0.3843,0.3844,0.3885,0.3885,0.3886,0.3911,0.3912,0.3912,0.3925,0.3925,0.3925,0.3925,0.3949,0.395,0.3951,0,0,0,0,0,0,0,0,0,0,0,0,0,0.3864,0.3844,0.3885,0.3895,0.3896,0.3911,0.3912,0.3912,0.3925,0.3925,0.3925,0.3925,0.3949,0.395,0.3951,0.3957,0,0,0.3954,0.3954,0,0,0,0,0,0,0,0,0.3863,0.3866,0.3893,0.3894,0.3896,0.3915,0.3906,0.3927,0.3925,0.3914,0.3925,0.3925,0.3938,0.394,0.3945,0.3958,0.3959,0.3954,0.3955,0.3955,0.3955,0,0,0,0,0,0,0,0.3862,0.3865,0.3895,0.3894,0.3895,0.3898,0.3901,0.391,0.3925,0.3915,0.3916,0.3919,0.3938,0.3944,0.3945,0.396,0.3954,0.3955,0.3955,0.3956,0.398,0.398,0,0,0,0,0,0,0.3859,0.3864,0.3895,0.3896,0.3879,0.3898,0.3902,0.3909,0.3925,0.3928,0.3919,0.3919,0.3942,0.3944,0.3946,0.3955,0.3955,0.3956,0.3957,0.398,0.398,0.398,0,0,0,0,0,0,0.3858,0.3862,0.3893,0.388,0.3884,0.3899,0.3907,0.3909,0.3914,0.3929,0.3931,0.3921,0.3942,0.3945,0.3955,0.3956,0.3956,0.3957,0.398,0.398,0.398,0.3973,0,0,0,0,0,0,0.3857,0.3861,0.3864,0.388,0.3885,0.3902,0.3907,0.391,0.3916,0.3917,0.3932,0.3934,0.3942,0.3953,0.3956,0.3957,0.3958,0.398,0.398,0.398,0.3973,0.3972,0.3972,0,0,0,0,0,0.3855,0.386,0.3864,0.3868,0.3889,0.3902,0.3905,0.3915,0.3916,0.3919,0.3928,0.3934,0.3955,0.3954,0.3957,0.3959,0.398,0.398,0.398,0.3973,0.3972,0.3972,0,0,0,0,0,0,0.3843,0.3862,0.3867,0.3878,0.3888,0.3904,0.3908,0.3914,0.3924,0.3924,0.3935,0.3938,0.3947,0.3954,0.3952,0.3966,0.3968,0.3969,0.3962,0.3961,0.3961,0.3959,0.3959,0,0,0,0,0,0.3842,0.3851,0.3867,0.3875,0.388,0.3893,0.3899,0.3906,0.3917,0.3922,0.3931,0.3941,0.395,0.3956,0.3965,0.3974,0.3977,0.3977,0.3976,0.3976,0.3976,0.3982,0.3982,0.3981,0.3981,0.3981,0,0,0.3839,0.3851,0.3856,0.3873,0.3882,0.3891,0.3897,0.3906,0.3913,0.3923,0.3933,0.394,0.3952,0.3961,0.3966,0.3967,0.3977,0.3976,0.3976,0.3976,0.3982,0.3982,0.3982,0.3981,0.3981,0.3981,0,0,0.3838,0.3848,0.3856,0.3865,0.3879,0.3888,0.389,0.3905,0.3911,0.3921,0.3929,0.3937,0.3952,0.396,0.3967,0.397,0.3975,0.3972,0.397,0.3975,0.3975,0.3975,0.3977,0.3977,0.3973,0.3973,0.3973,0,0.3832,0.3847,0.3859,0.3868,0.3875,0.3886,0.3893,0.3901,0.3917,0.3922,0.3923,0.3943,0.3952,0.3963,0.3964,0.3969,0.3971,0.3971,0.3974,0.3975,0.3975,0.3976,0.3977,0.3972,0.3972,0.3972,0.3972,0,0.384,0.385,0.3854,0.387,0.3878,0.3886,0.3899,0.3905,0.3911,0.392,0.393,0.3941,0.3953,0.3956,0.3962,0.3969,0.3969,0.3972,0.3975,0.3974,0.3976,0.3976,0.3972,0.3972,0.3972,0.3972,0,0,0.3832,0.3855,0.3856,0.3864,0.388,0.3888,0.3897,0.3909,0.3914,0.3925,0.3932,0.3946,0.3949,0.3956,0.3963,0.3967,0.3969,0.397,0.397,0.3969,0.3977,0.3975,0.3975,0.3973,0.3973,0.3973,0.3976,0,0.3833,0.385,0.3861,0.3874,0.3883,0.3893,0.3901,0.3911,0.3919,0.3928,0.3937,0.3946,0.395,0.3954,0.3959,0.3968,0.3971,0.3968,0.3979,0.3979,0.3976,0.3976,0.3973,0.3976,0.3977,0.3977,0.3977,0,0.3837,0.3849,0.3863,0.3879,0.3883,0.389,0.3902,0.391,0.3922,0.3928,0.3936,0.3944,0.3953,0.3954,0.3967,0.3964,0.397,0.3975,0.3975,0.3977,0.3978,0.3977,0.3977,0.3977,0.3978,0.3978,0.3978,0,0.3831,0.3849,0.386,0.3866,0.3885,0.389,0.3897,0.391,0.3917,0.3927,0.3932,0.3943,0.3949,0.3957,0.3967,0.3967,0.3979,0.3981,0.3983,0.3983,0.3985,0.3985,0.3986,0.3988,0.3988,0.3988,0.3988,0,0.3831,0.3839,0.3857,0.3864,0.3873,0.3885,0.3894,0.3902,0.3913,0.3921,0.393,0.3937,0.395,0.3959,0.3966,0.3975,0.3978,0.3982,0.3984,0.3982,0.3981,0.3985,0.3985,0.3988,0.3988,0.3988,0.3988,0,0.3825,0.3837,0.385,0.3867,0.3872,0.3877,0.3892,0.3898,0.3907,0.3917,0.392,0.3934,0.3944,0.3955,0.3969,0.3974,0.3983,0.3986,0.398,0.3981,0.3982,0.3982,0.3986,0.3987,0.3989,0.3989,0.3989,0,0.3825,0.3831,0.3849,0.3856,0.3864,0.3874,0.3882,0.3894,0.3901,0.3916,0.392,0.3932,0.3942,0.3958,0.3969,0.398,0.3983,0.3983,0.3984,0.3982,0.3983,0.3982,0.3983,0.3983,0.3983,0.3983,0.3983,0,0.3823,0.3829,0.384,0.3853,0.3862,0.3873,0.3884,0.3888,0.3902,0.391,0.3922,0.3929,0.3944,0.3955,0.3968,0.3975,0.3981,0.3982,0.3983,0.3981,0.3977,0.3979,0.3979,0.3982,0.3982,0.3982,0.3982,0.3982,0.382,0.3826,0.384,0.3852,0.3862,0.3872,0.3879,0.3889,0.39,0.3913,0.392,0.3931,0.3943,0.3961,0.3968,0.3977,0.3978,0.398,0.398,0.3981,0.398,0.3976,0.3979,0.3979,0.3979,0.3979,0.3979,0,0.3818,0.3828,0.3839,0.3855,0.3864,0.387,0.3883,0.389,0.39,0.3911,0.3921,0.3934,0.3946,0.3958,0.3969,0.3974,0.3977,0.3977,0.3976,0.3978,0.3978,0.3976,0.3974,0.3974,0.3974,0.3974,0.3974,0.3974,0.3819,0.383,0.3838,0.3854,0.3864,0.3876,0.3883,0.3892,0.3901,0.3916,0.3926,0.3934,0.3945,0.3958,0.3968,0.3971,0.3975,0.3974,0.3978,0.3978,0.3978,0.3978,0.3976,0.3975,0.3975,0.3977,0.3977,0.3977]}]]